Tracking 31027 objects as of 19-Jul-2025
HD Live streaming from Space Station
objects crossing your sky now

FENGYUN 1C DEB

Track FENGYUN 1C DEB now!
10-day predictions


NORAD ID: 35139
Int'l Code: 1999-025DLT
Perigee: 779.9 km
Apogee: 879.8 km
Inclination: 98.6 °
Period: 101.4 minutes
Semi major axis: 7200 km
RCS: 0.0145 m2 (small)
Launch date: May 10, 1999
Source: People's Republic of China (PRC)
Launch site: Taiyaun Space Center, China (TSC)

Note: This is SATELLITE DEBRIS
Your satellite tracking list
ICEYE-X27
Track 1 satellite(s)




NASA's NSSDC Master Catalog

Two Line Element Set (TLE):
1 35139U 99025DLT 25199.77022076  .00000535  00000-0  26111-3 0  9990
2 35139  98.5836 209.1264 0069320   4.0521 356.1203 14.20784404620662
Source of the keplerian elements: AFSPC